ENT5848 DTMB-EPWA

Flight info

Callsign ENT5848
Flight time 2h 42m
Altitude 40000
Route SORAB1E SORAB UM735 BABLO DCT MEGAN DCT VAPUP/N0444F410 DCT NIVES DCT KOPRY DCT MEBAN M985 SKAVI DCT ORTEB/N0335F220 DCT KONZI DCT LOGDA
Aircraft B738/M-SDFGHIJ1RWXY/EB1

Departure

Time 2026-04-30 10:49
Airport Monastir Habib Bourguiba International Airport (DTMB)

Arrival

Time 2026-04-30 13:32
Airport Warsaw Chopin Airport (EPWA)
Time Latitude Longitude Altitude Speed Heading
2026-04-30 10:03 35.75992 10.75380 9 ft 0 kts 343°
2026-04-30 10:39 35.75987 10.75382 9 ft 4 kts 343°
2026-04-30 10:40 35.75961 10.75391 9 ft 3 kts 343°
2026-04-30 10:40 35.75941 10.75401 10 ft 4 kts 308°
2026-04-30 10:40 35.75935 10.75428 10 ft 4 kts 261°
2026-04-30 10:40 35.75941 10.75457 10 ft 1 kts 253°
2026-04-30 10:41 35.75941 10.75458 10 ft 0 kts 253°
2026-04-30 10:44 35.75938 10.75446 11 ft 4 kts 253°
2026-04-30 10:44 35.75924 10.75386 11 ft 11 kts 253°
2026-04-30 10:45 35.75898 10.75278 10 ft 15 kts 253°
2026-04-30 10:45 35.75869 10.75157 10 ft 14 kts 253°
2026-04-30 10:45 35.75842 10.75045 10 ft 13 kts 253°
2026-04-30 10:45 35.75816 10.74937 11 ft 13 kts 254°
2026-04-30 10:46 35.75791 10.74832 12 ft 13 kts 253°
2026-04-30 10:46 35.75797 10.74755 10 ft 9 kts 274°
2026-04-30 10:46 35.75783 10.74681 9 ft 9 kts 254°
2026-04-30 10:46 35.75764 10.74602 9 ft 11 kts 253°
2026-04-30 10:47 35.75737 10.74491 9 ft 17 kts 253°
2026-04-30 10:47 35.75698 10.74329 10 ft 22 kts 253°
2026-04-30 10:47 35.75653 10.74142 9 ft 23 kts 253°
2026-04-30 10:47 35.75610 10.73958 9 ft 22 kts 253°
2026-04-30 10:48 35.75568 10.73825 10 ft 13 kts 222°
2026-04-30 10:48 35.75486 10.73824 10 ft 12 kts 160°
2026-04-30 10:48 35.75429 10.73891 12 ft 12 kts 95°
2026-04-30 10:48 35.75450 10.74006 11 ft 24 kts 75°
2026-04-30 10:49 35.75576 10.74539 10 ft 104 kts 73°
2026-04-30 10:49 35.75843 10.75650 91 ft 157 kts 73°
2026-04-30 10:49 35.76142 10.76918 900 ft 155 kts 73°
2026-04-30 10:49 35.76684 10.78053 1782 ft 161 kts 38°
2026-04-30 10:50 35.77824 10.78596 2312 ft 196 kts 18°
2026-04-30 10:50 35.78968 10.79722 2513 ft 231 kts 59°
2026-04-30 10:50 35.79691 10.81565 3033 ft 244 kts 64°
2026-04-30 10:50 35.80487 10.83567 3248 ft 277 kts 62°
2026-04-30 10:51 35.81422 10.85765 3563 ft 298 kts 60°
2026-04-30 10:51 35.82434 10.88033 4228 ft 306 kts 59°
2026-04-30 10:51 35.83487 10.90320 5144 ft 308 kts 58°
2026-04-30 10:51 35.84572 10.92621 6015 ft 313 kts 58°
2026-04-30 10:52 35.85688 10.94949 6868 ft 318 kts 57°
2026-04-30 10:52 35.86830 10.97312 7710 ft 324 kts 57°
2026-04-30 10:52 35.88002 10.99720 8552 ft 329 kts 57°
2026-04-30 10:52 35.89177 11.02126 9387 ft 335 kts 56°
2026-04-30 10:53 35.90667 11.04335 10228 ft 336 kts 36°
2026-04-30 10:53 35.92702 11.05698 11200 ft 333 kts 18°
2026-04-30 10:53 35.94876 11.06727 12167 ft 337 kts 17°
2026-04-30 10:53 35.97088 11.07743 13093 ft 342 kts 17°
2026-04-30 10:54 35.99324 11.08772 14070 ft 345 kts 17°
2026-04-30 10:54 36.01586 11.09826 15062 ft 349 kts 17°
2026-04-30 10:54 36.03870 11.10903 15990 ft 354 kts 17°
2026-04-30 10:54 36.06174 11.12001 16939 ft 357 kts 17°
2026-04-30 10:55 36.08507 11.13120 17868 ft 361 kts 17°
2026-04-30 10:55 36.10872 11.14258 18731 ft 366 kts 17°
2026-04-30 10:55 36.13226 11.15395 19555 ft 371 kts 17°
2026-04-30 10:55 36.15644 11.16564 20356 ft 375 kts 17°
2026-04-30 10:56 36.18085 11.17747 21159 ft 379 kts 17°
2026-04-30 10:56 36.20542 11.18940 22046 ft 379 kts 16°
2026-04-30 10:56 36.23007 11.20136 22830 ft 382 kts 16°
2026-04-30 10:56 36.25499 11.21345 23513 ft 387 kts 16°
2026-04-30 10:57 36.28028 11.22574 24188 ft 391 kts 16°
2026-04-30 10:57 36.30572 11.23812 24837 ft 395 kts 16°
2026-04-30 10:57 36.33148 11.25065 25465 ft 400 kts 15°
2026-04-30 10:57 36.35743 11.26329 26060 ft 404 kts 16°
2026-04-30 10:58 36.38376 11.27613 26644 ft 408 kts 15°
2026-04-30 10:58 36.41034 11.28910 27201 ft 411 kts 15°
2026-04-30 10:58 36.43678 11.30201 27721 ft 415 kts 15°
2026-04-30 10:58 36.46411 11.31537 28292 ft 418 kts 15°
2026-04-30 10:59 36.49091 11.32848 28803 ft 421 kts 15°
2026-04-30 10:59 36.51828 11.34187 29284 ft 425 kts 15°
2026-04-30 10:59 36.54591 11.35539 29768 ft 428 kts 15°
2026-04-30 10:59 36.57374 11.36903 30211 ft 431 kts 15°
2026-04-30 11:00 36.60174 11.38276 30636 ft 434 kts 15°
2026-04-30 11:00 36.62991 11.39659 31068 ft 437 kts 15°
2026-04-30 11:00 36.65835 11.41057 31472 ft 439 kts 15°
2026-04-30 11:00 36.68685 11.42459 31878 ft 442 kts 15°
2026-04-30 11:01 36.71554 11.43871 32272 ft 444 kts 14°
2026-04-30 11:01 36.74429 11.45288 32651 ft 446 kts 15°
2026-04-30 11:01 36.77320 11.46715 33074 ft 446 kts 14°
2026-04-30 11:01 36.80203 11.48138 33568 ft 444 kts 14°
2026-04-30 11:02 36.83031 11.49535 34068 ft 442 kts 15°
2026-04-30 11:02 36.85849 11.51151 34528 ft 447 kts 20°
2026-04-30 11:02 36.88580 11.53014 34915 ft 449 kts 22°
2026-04-30 11:02 36.91302 11.54972 35279 ft 451 kts 22°
2026-04-30 11:03 36.94011 11.56949 35665 ft 451 kts 23°
2026-04-30 11:03 36.96718 11.58916 36103 ft 449 kts 22°
2026-04-30 11:03 36.99421 11.60861 36473 ft 449 kts 22°
2026-04-30 11:04 37.04849 11.64722 37240 ft 446 kts 22°
2026-04-30 11:04 37.07530 11.66624 37831 ft 440 kts 22°
2026-04-30 11:04 37.10192 11.68510 38201 ft 439 kts 22°
2026-04-30 11:04 37.12864 11.70399 38427 ft 442 kts 22°
2026-04-30 11:05 37.15547 11.72296 38644 ft 444 kts 22°
2026-04-30 11:05 37.18204 11.74180 38958 ft 444 kts 22°
2026-04-30 11:05 37.20887 11.76087 39275 ft 443 kts 22°
2026-04-30 11:05 37.23576 11.77998 39544 ft 444 kts 22°
2026-04-30 11:06 37.26266 11.79912 39759 ft 446 kts 22°
2026-04-30 11:06 37.28969 11.81837 40001 ft 446 kts 22°
2026-04-30 11:06 37.31680 11.83769 40034 ft 451 kts 22°
2026-04-30 11:07 37.37149 11.87674 40037 ft 451 kts 22°
2026-04-30 11:07 37.42554 11.91546 40038 ft 443 kts 23°
2026-04-30 11:08 37.47908 11.95379 40046 ft 442 kts 22°
2026-04-30 11:08 37.53261 11.99215 40039 ft 442 kts 22°
2026-04-30 11:09 37.58748 12.02448 40058 ft 435 kts 16°
2026-04-30 11:09 37.64351 12.05351 40049 ft 436 kts 15°
2026-04-30 11:10 37.69965 12.08268 40047 ft 437 kts 15°
2026-04-30 11:10 37.75577 12.11241 40046 ft 438 kts 16°
2026-04-30 11:11 37.81192 12.14247 40050 ft 439 kts 16°
2026-04-30 11:11 37.86780 12.17252 40044 ft 439 kts 16°
2026-04-30 11:12 37.91493 12.19790 40047 ft 440 kts 16°
2026-04-30 11:12 37.97129 12.22829 40041 ft 440 kts 16°
2026-04-30 11:13 38.02763 12.25872 40042 ft 440 kts 16°
2026-04-30 11:13 38.08364 12.28902 40049 ft 440 kts 16°
2026-04-30 11:14 38.13995 12.31953 40042 ft 440 kts 16°
2026-04-30 11:14 38.19622 12.35007 40045 ft 439 kts 17°
2026-04-30 11:15 38.25248 12.38065 40048 ft 439 kts 17°
2026-04-30 11:15 38.30862 12.41122 40044 ft 439 kts 17°
2026-04-30 11:16 38.36431 12.44159 40047 ft 438 kts 17°
2026-04-30 11:16 38.42038 12.47223 40051 ft 438 kts 17°
2026-04-30 11:17 38.47636 12.50286 40055 ft 438 kts 17°
2026-04-30 11:17 38.53243 12.53360 40058 ft 438 kts 17°
2026-04-30 11:18 38.58841 12.56433 40055 ft 438 kts 17°
2026-04-30 11:18 38.67251 12.61062 40057 ft 439 kts 17°
2026-04-30 11:19 38.72861 12.64155 40052 ft 439 kts 17°
2026-04-30 11:19 38.78470 12.67254 40060 ft 439 kts 17°
2026-04-30 11:20 38.84081 12.70360 40059 ft 439 kts 17°
2026-04-30 11:20 38.89694 12.73471 40059 ft 439 kts 17°
2026-04-30 11:21 38.95305 12.76587 40056 ft 439 kts 17°
2026-04-30 11:21 39.00918 12.79709 40059 ft 439 kts 17°
2026-04-30 11:22 39.06530 12.82837 40054 ft 439 kts 17°
2026-04-30 11:22 39.12104 12.85948 40051 ft 439 kts 18°
2026-04-30 11:23 39.17743 12.89102 40057 ft 439 kts 18°
2026-04-30 11:24 39.26105 12.93787 40061 ft 439 kts 18°
2026-04-30 11:24 39.31703 12.96931 40067 ft 439 kts 18°
2026-04-30 11:25 39.40094 13.01654 40078 ft 438 kts 18°
2026-04-30 11:26 39.51280 13.07969 40077 ft 438 kts 18°
2026-04-30 11:26 39.56867 13.11132 40083 ft 438 kts 18°
2026-04-30 11:27 39.62459 13.14303 40083 ft 438 kts 18°
2026-04-30 11:27 39.68043 13.17475 40084 ft 438 kts 18°
2026-04-30 11:28 39.76409 13.22238 40092 ft 438 kts 18°
2026-04-30 11:29 39.81988 13.25422 40093 ft 438 kts 18°
2026-04-30 11:29 39.90358 13.30208 40093 ft 438 kts 18°
2026-04-30 11:30 39.98733 13.35010 40102 ft 438 kts 18°
2026-04-30 11:31 40.04278 13.38197 40102 ft 439 kts 18°
2026-04-30 11:31 40.09869 13.41416 40102 ft 439 kts 18°
2026-04-30 11:32 40.15452 13.44636 40107 ft 439 kts 18°
2026-04-30 11:32 40.21039 13.47864 40114 ft 439 kts 19°
2026-04-30 11:33 40.29418 13.52717 40132 ft 439 kts 19°
2026-04-30 11:33 40.35007 13.55961 40129 ft 439 kts 19°
2026-04-30 11:34 40.40589 13.59206 40129 ft 439 kts 19°
2026-04-30 11:34 40.46180 13.62463 40130 ft 440 kts 19°
2026-04-30 11:35 40.51771 13.65726 40130 ft 440 kts 19°
2026-04-30 11:35 40.57361 13.68994 40129 ft 440 kts 19°
2026-04-30 11:36 40.62953 13.72270 40129 ft 440 kts 19°
2026-04-30 11:36 40.68546 13.75552 40125 ft 440 kts 19°
2026-04-30 11:37 40.74103 13.78820 40129 ft 440 kts 19°
2026-04-30 11:37 40.79696 13.82114 40130 ft 440 kts 19°
2026-04-30 11:38 40.85286 13.85413 40130 ft 440 kts 19°
2026-04-30 11:38 40.90868 13.88712 40130 ft 440 kts 19°
2026-04-30 11:39 40.96459 13.92024 40128 ft 440 kts 19°
2026-04-30 11:39 41.02040 13.95336 40130 ft 440 kts 19°
2026-04-30 11:40 41.07620 13.98653 40129 ft 439 kts 19°
2026-04-30 11:40 41.13198 14.01975 40127 ft 439 kts 19°
2026-04-30 11:41 41.18775 14.05303 40132 ft 439 kts 19°
2026-04-30 11:41 41.24352 14.08637 40127 ft 439 kts 19°
2026-04-30 11:42 41.29922 14.11973 40128 ft 439 kts 19°
2026-04-30 11:42 41.35457 14.15295 40134 ft 439 kts 19°
2026-04-30 11:43 41.41023 14.18641 40131 ft 439 kts 19°
2026-04-30 11:43 41.46599 14.22000 40134 ft 440 kts 19°
2026-04-30 11:44 41.52175 14.25365 40131 ft 440 kts 19°
2026-04-30 11:44 41.57748 14.28735 40136 ft 440 kts 19°
2026-04-30 11:45 41.63318 14.32110 40151 ft 439 kts 19°
2026-04-30 11:45 41.68880 14.35486 40182 ft 439 kts 19°
2026-04-30 11:46 41.74433 14.38862 40187 ft 439 kts 19°
2026-04-30 11:46 41.79985 14.42245 40205 ft 439 kts 19°
2026-04-30 11:47 41.85544 14.45638 40215 ft 439 kts 19°
2026-04-30 11:47 41.91106 14.49040 40214 ft 439 kts 19°
2026-04-30 11:48 41.96666 14.52447 40223 ft 439 kts 19°
2026-04-30 11:48 42.02229 14.55863 40225 ft 440 kts 19°
2026-04-30 11:49 42.07796 14.59287 40222 ft 440 kts 19°
2026-04-30 11:49 42.13364 14.62719 40239 ft 440 kts 19°
2026-04-30 11:50 42.18923 14.66153 40244 ft 439 kts 19°
2026-04-30 11:50 42.24475 14.69588 40235 ft 439 kts 19°
2026-04-30 11:51 42.30025 14.73029 40242 ft 438 kts 19°
2026-04-30 11:51 42.35561 14.76468 40238 ft 438 kts 19°
2026-04-30 11:52 42.41092 14.79910 40243 ft 437 kts 19°
2026-04-30 11:52 42.46615 14.83354 40238 ft 437 kts 19°
2026-04-30 11:53 42.52137 14.86805 40252 ft 437 kts 19°
2026-04-30 11:53 42.57613 14.90233 40247 ft 436 kts 19°
2026-04-30 11:54 42.63127 14.93691 40250 ft 437 kts 19°
2026-04-30 11:54 42.68634 14.97152 40248 ft 437 kts 19°
2026-04-30 11:55 42.74147 15.00624 40247 ft 437 kts 19°
2026-04-30 11:55 42.79661 15.04103 40246 ft 437 kts 19°
2026-04-30 11:56 42.85179 15.07592 40253 ft 437 kts 19°
2026-04-30 11:56 42.90689 15.11083 40252 ft 437 kts 19°
2026-04-30 11:57 42.96204 15.14584 40234 ft 437 kts 19°
2026-04-30 11:57 43.01714 15.18088 40241 ft 437 kts 19°
2026-04-30 11:58 43.07303 15.21223 40231 ft 430 kts
2026-04-30 11:58 43.13106 15.23061 40237 ft 428 kts
2026-04-30 11:59 43.18926 15.24788 40242 ft 428 kts
2026-04-30 11:59 43.24694 15.26545 40247 ft 428 kts
2026-04-30 12:00 43.30499 15.28354 40237 ft 428 kts
2026-04-30 12:00 43.36298 15.30179 40237 ft 428 kts
2026-04-30 12:01 43.42102 15.32011 40238 ft 428 kts
2026-04-30 12:01 43.47904 15.33845 40237 ft 428 kts
2026-04-30 12:02 43.53700 15.35681 40238 ft 428 kts
2026-04-30 12:02 43.59497 15.37520 40228 ft 428 kts
2026-04-30 12:03 43.67226 15.39978 40231 ft 428 kts
2026-04-30 12:04 43.73023 15.41825 40231 ft 428 kts
2026-04-30 12:04 43.78823 15.43678 40228 ft 428 kts
2026-04-30 12:05 43.84623 15.45534 40231 ft 428 kts
2026-04-30 12:05 43.90420 15.47393 40237 ft 428 kts
2026-04-30 12:06 43.96224 15.49258 40242 ft 428 kts
2026-04-30 12:06 44.02030 15.51127 40240 ft 428 kts
2026-04-30 12:07 44.07840 15.53001 40249 ft 429 kts
2026-04-30 12:07 44.13638 15.54876 40237 ft 428 kts
2026-04-30 12:08 44.19450 15.56758 40245 ft 428 kts
2026-04-30 12:08 44.25254 15.58642 40254 ft 430 kts
2026-04-30 12:08 44.28177 15.59590 40355 ft 434 kts
2026-04-30 12:09 44.31126 15.60549 40625 ft 434 kts
2026-04-30 12:09 44.34062 15.61506 40925 ft 433 kts
2026-04-30 12:09 44.36992 15.62462 41225 ft 432 kts
2026-04-30 12:10 44.42897 15.64389 41249 ft 438 kts
2026-04-30 12:10 44.48813 15.66327 41246 ft 433 kts
2026-04-30 12:11 44.54659 15.68247 41248 ft 430 kts
2026-04-30 12:11 44.60433 15.70144 41257 ft 428 kts
2026-04-30 12:12 44.66216 15.72048 41262 ft 427 kts
2026-04-30 12:12 44.71993 15.73953 41280 ft 426 kts
2026-04-30 12:13 44.77772 15.75862 41287 ft 427 kts
2026-04-30 12:13 44.83576 15.77784 41292 ft 430 kts
2026-04-30 12:14 44.89414 15.79722 41308 ft 433 kts
2026-04-30 12:14 44.95298 15.81680 41317 ft 436 kts
2026-04-30 12:15 45.01226 15.83656 41333 ft 439 kts
2026-04-30 12:15 45.07185 15.85648 41342 ft 441 kts 10°
2026-04-30 12:16 45.13161 15.87650 41350 ft 441 kts 10°
2026-04-30 12:16 45.19139 15.89663 41347 ft 441 kts 11°
2026-04-30 12:17 45.27372 15.95584 41363 ft 448 kts 32°
2026-04-30 12:17 45.32397 16.00797 41351 ft 447 kts 33°
2026-04-30 12:18 45.37408 16.06010 41356 ft 445 kts 32°
2026-04-30 12:18 45.42412 16.11161 41369 ft 443 kts 32°
2026-04-30 12:19 45.47367 16.16243 41365 ft 442 kts 32°
2026-04-30 12:19 45.52354 16.21362 41368 ft 441 kts 32°
2026-04-30 12:20 45.57330 16.26483 41362 ft 441 kts 32°
2026-04-30 12:20 45.62300 16.31610 41364 ft 440 kts 32°
2026-04-30 12:21 45.67263 16.36742 41378 ft 441 kts 32°
2026-04-30 12:21 45.72241 16.41900 41372 ft 441 kts 32°
2026-04-30 12:22 45.77195 16.47046 41377 ft 442 kts 32°
2026-04-30 12:22 45.82179 16.52235 41379 ft 443 kts 32°
2026-04-30 12:23 45.87171 16.57444 41379 ft 444 kts 32°
2026-04-30 12:23 45.92169 16.62671 41376 ft 444 kts 32°
2026-04-30 12:24 45.97146 16.67888 41376 ft 445 kts 32°
2026-04-30 12:24 46.02161 16.73157 41393 ft 445 kts 33°
2026-04-30 12:25 46.07127 16.78387 41383 ft 444 kts 33°
2026-04-30 12:25 46.12102 16.83638 41374 ft 443 kts 33°
2026-04-30 12:26 46.17064 16.88888 41378 ft 441 kts 33°
2026-04-30 12:26 46.22020 16.94142 41382 ft 440 kts 33°
2026-04-30 12:27 46.27135 16.98856 41399 ft 434 kts 25°
2026-04-30 12:27 46.32459 17.02960 41380 ft 433 kts 25°
2026-04-30 12:28 46.37747 17.07013 41392 ft 432 kts 25°
2026-04-30 12:28 46.43075 17.11149 41392 ft 431 kts 25°
2026-04-30 12:29 46.48325 17.15261 41398 ft 431 kts 25°
2026-04-30 12:29 46.53601 17.19410 41396 ft 431 kts 25°
2026-04-30 12:30 46.58876 17.23569 41399 ft 432 kts 25°
2026-04-30 12:30 46.64161 17.27745 41408 ft 432 kts 25°
2026-04-30 12:31 46.69447 17.31931 41406 ft 432 kts 25°
2026-04-30 12:31 46.74732 17.36125 41401 ft 433 kts 25°
2026-04-30 12:32 46.80024 17.40334 41406 ft 433 kts 25°
2026-04-30 12:32 46.85317 17.44553 41405 ft 433 kts 26°
2026-04-30 12:33 46.90611 17.48783 41394 ft 434 kts 26°
2026-04-30 12:33 46.95872 17.52996 41394 ft 434 kts 26°
2026-04-30 12:34 47.01171 17.57249 41394 ft 433 kts 26°
2026-04-30 12:34 47.06455 17.61500 41396 ft 433 kts 26°
2026-04-30 12:35 47.11721 17.65746 41393 ft 432 kts 26°
2026-04-30 12:35 47.16995 17.70008 41397 ft 432 kts 26°
2026-04-30 12:36 47.22252 17.74266 41403 ft 431 kts 26°
2026-04-30 12:36 47.27500 17.78526 41404 ft 430 kts 26°
2026-04-30 12:37 47.32710 17.82765 41404 ft 430 kts 26°
2026-04-30 12:37 47.37943 17.87033 41402 ft 429 kts 26°
2026-04-30 12:38 47.43179 17.91312 41394 ft 429 kts 27°
2026-04-30 12:38 47.48398 17.95587 41401 ft 428 kts 27°
2026-04-30 12:39 47.53606 17.99864 41404 ft 428 kts 27°
2026-04-30 12:39 47.58801 18.04140 41402 ft 427 kts 27°
2026-04-30 12:40 47.63995 18.08424 41405 ft 427 kts 27°
2026-04-30 12:40 47.69152 18.12688 41406 ft 427 kts 27°
2026-04-30 12:41 47.74334 18.16982 41400 ft 427 kts 27°
2026-04-30 12:41 47.79524 18.21292 41394 ft 427 kts 27°
2026-04-30 12:42 47.84714 18.25613 41396 ft 427 kts 27°
2026-04-30 12:42 47.89905 18.29945 41397 ft 428 kts 27°
2026-04-30 12:43 47.95098 18.34288 41397 ft 428 kts 27°
2026-04-30 12:43 48.00297 18.38646 41389 ft 429 kts 27°
2026-04-30 12:44 48.05499 18.43017 41393 ft 429 kts 27°
2026-04-30 12:44 48.10699 18.47397 41385 ft 429 kts 27°
2026-04-30 12:45 48.15910 18.51797 41389 ft 429 kts 27°
2026-04-30 12:45 48.21074 18.56166 41391 ft 429 kts 27°
2026-04-30 12:46 48.26264 18.60569 41381 ft 428 kts 27°
2026-04-30 12:46 48.31455 18.64982 41373 ft 428 kts 28°
2026-04-30 12:47 48.36638 18.69399 41376 ft 428 kts 28°
2026-04-30 12:47 48.41812 18.73819 41390 ft 428 kts 28°
2026-04-30 12:48 48.46992 18.78254 41375 ft 428 kts 28°
2026-04-30 12:48 48.52133 18.82666 41382 ft 428 kts 28°
2026-04-30 12:49 48.57304 18.87115 41391 ft 428 kts 28°
2026-04-30 12:49 48.62478 18.91577 41385 ft 428 kts 28°
2026-04-30 12:50 48.67648 18.96046 41377 ft 428 kts 28°
2026-04-30 12:50 48.72814 19.00522 41383 ft 427 kts 28°
2026-04-30 12:51 48.77969 19.05000 41381 ft 427 kts 28°
2026-04-30 12:51 48.82255 19.08730 41377 ft 426 kts 28°
2026-04-30 12:52 48.87404 19.13223 41392 ft 426 kts 28°
2026-04-30 12:52 48.92505 19.17682 41384 ft 426 kts 28°
2026-04-30 12:53 48.97653 19.22195 41392 ft 426 kts 28°
2026-04-30 12:53 49.02797 19.26715 41394 ft 426 kts 28°
2026-04-30 12:54 49.07939 19.31244 41388 ft 427 kts 28°
2026-04-30 12:54 49.13081 19.35784 41377 ft 427 kts 28°
2026-04-30 12:55 49.18229 19.40340 41386 ft 427 kts 28°
2026-04-30 12:55 49.23345 19.44879 41373 ft 427 kts 28°
2026-04-30 12:56 49.28477 19.49444 41380 ft 426 kts 29°
2026-04-30 12:56 49.33611 19.54021 41371 ft 426 kts 29°
2026-04-30 12:57 49.38737 19.58603 41385 ft 425 kts 29°
2026-04-30 12:57 49.43811 19.63148 41377 ft 425 kts 29°
2026-04-30 12:58 49.49202 19.66822 41389 ft 422 kts 18°
2026-04-30 12:58 49.54761 19.69739 41385 ft 422 kts 18°
2026-04-30 12:59 49.60317 19.72685 41391 ft 422 kts 18°
2026-04-30 12:59 49.65849 19.75681 41375 ft 422 kts 19°
2026-04-30 13:00 49.71015 19.78497 41388 ft 421 kts 19°
2026-04-30 13:00 49.76500 19.81489 41396 ft 421 kts 18°
2026-04-30 13:01 49.82088 19.84246 41395 ft 421 kts 17°
2026-04-30 13:01 49.87697 19.86912 41393 ft 421 kts 17°
2026-04-30 13:02 49.93287 19.89632 41393 ft 421 kts 17°
2026-04-30 13:02 49.98826 19.92595 41404 ft 421 kts 20°
2026-04-30 13:03 50.04288 19.95802 41405 ft 421 kts 20°
2026-04-30 13:03 50.09773 19.99024 41406 ft 421 kts 20°
2026-04-30 13:04 50.15268 20.02221 41404 ft 422 kts 20°
2026-04-30 13:04 50.20770 20.05410 41407 ft 422 kts 20°
2026-04-30 13:05 50.23534 20.07013 41149 ft 426 kts 20°
2026-04-30 13:05 50.26321 20.08631 40619 ft 426 kts 20°
2026-04-30 13:05 50.29097 20.10245 40010 ft 424 kts 20°
2026-04-30 13:06 50.34577 20.13438 38747 ft 421 kts 20°
2026-04-30 13:06 50.37322 20.15041 38090 ft 420 kts 20°
2026-04-30 13:06 50.40062 20.16645 37414 ft 419 kts 20°
2026-04-30 13:06 50.42787 20.18241 36725 ft 417 kts 20°
2026-04-30 13:07 50.45499 20.19829 35997 ft 415 kts 20°
2026-04-30 13:07 50.48200 20.21411 35406 ft 411 kts 20°
2026-04-30 13:07 50.50862 20.22974 34846 ft 407 kts 21°
2026-04-30 13:07 50.53495 20.24522 34300 ft 402 kts 21°
2026-04-30 13:08 50.56101 20.26055 33764 ft 397 kts 21°
2026-04-30 13:08 50.58673 20.27571 33233 ft 392 kts 21°
2026-04-30 13:08 50.61214 20.29070 32708 ft 387 kts 21°
2026-04-30 13:08 50.63709 20.30544 32190 ft 382 kts 21°
2026-04-30 13:09 50.66195 20.32013 31667 ft 377 kts 21°
2026-04-30 13:09 50.68604 20.33440 31161 ft 372 kts 21°
2026-04-30 13:09 50.71016 20.34871 30653 ft 367 kts 21°
2026-04-30 13:09 50.73400 20.36286 30144 ft 362 kts 21°
2026-04-30 13:10 50.75742 20.37677 29628 ft 357 kts 21°
2026-04-30 13:10 50.78051 20.39049 29102 ft 353 kts 21°
2026-04-30 13:10 50.80339 20.40411 28577 ft 348 kts 21°
2026-04-30 13:10 50.82593 20.41753 28055 ft 344 kts 21°
2026-04-30 13:11 50.84821 20.43082 27539 ft 340 kts 21°
2026-04-30 13:11 50.87021 20.44397 27021 ft 336 kts 21°
2026-04-30 13:11 50.89196 20.45697 26505 ft 333 kts 21°
2026-04-30 13:11 50.91355 20.46989 25993 ft 329 kts 21°
2026-04-30 13:12 50.93486 20.48265 25482 ft 326 kts 21°
2026-04-30 13:12 50.95597 20.49531 24977 ft 322 kts 21°
2026-04-30 13:12 50.97681 20.50783 24480 ft 319 kts 22°
2026-04-30 13:13 51.01774 20.53242 23501 ft 313 kts 21°
2026-04-30 13:13 51.03802 20.54462 23012 ft 310 kts 21°
2026-04-30 13:13 51.07808 20.56878 22048 ft 305 kts 21°
2026-04-30 13:14 51.09782 20.58068 21577 ft 302 kts 21°
2026-04-30 13:14 51.11739 20.59251 21111 ft 300 kts 21°
2026-04-30 13:14 51.15616 20.61597 20188 ft 295 kts 21°
2026-04-30 13:15 51.17525 20.62754 19727 ft 292 kts 21°
2026-04-30 13:15 51.21276 20.65029 18841 ft 288 kts 22°
2026-04-30 13:15 51.23136 20.66158 18390 ft 286 kts 21°
2026-04-30 13:16 51.24994 20.67287 17950 ft 283 kts 21°
2026-04-30 13:16 51.26827 20.68402 17514 ft 281 kts 22°
2026-04-30 13:16 51.28661 20.69516 17078 ft 280 kts 21°
2026-04-30 13:17 51.32315 20.71553 16221 ft 276 kts 19°
2026-04-30 13:17 51.34131 20.72540 15795 ft 275 kts 19°
2026-04-30 13:17 51.37718 20.74496 14961 ft 272 kts 19°
2026-04-30 13:18 51.39517 20.75481 14540 ft 274 kts 19°
2026-04-30 13:18 51.43133 20.77468 13691 ft 273 kts 19°
2026-04-30 13:18 51.44927 20.78456 13277 ft 272 kts 19°
2026-04-30 13:19 51.46715 20.79443 12854 ft 271 kts 19°
2026-04-30 13:19 51.48497 20.80428 12441 ft 270 kts 19°
2026-04-30 13:19 51.50272 20.81410 12027 ft 269 kts 19°
2026-04-30 13:19 51.52043 20.82390 11609 ft 268 kts 19°
2026-04-30 13:20 51.53806 20.83368 11197 ft 268 kts 19°
2026-04-30 13:20 51.55569 20.84347 10794 ft 268 kts 19°
2026-04-30 13:20 51.57314 20.85316 10588 ft 262 kts 19°
2026-04-30 13:20 51.59022 20.86264 10436 ft 256 kts 19°
2026-04-30 13:21 51.60705 20.87199 10107 ft 254 kts 18°
2026-04-30 13:21 51.62373 20.88126 9776 ft 254 kts 19°
2026-04-30 13:21 51.64045 20.89059 9431 ft 254 kts 19°
2026-04-30 13:22 51.67391 20.90924 8746 ft 254 kts 18°
2026-04-30 13:22 51.69042 20.91844 8309 ft 254 kts 18°
2026-04-30 13:22 51.72381 20.93712 7312 ft 247 kts 18°
2026-04-30 13:23 51.73985 20.94607 6985 ft 242 kts 18°
2026-04-30 13:23 51.77256 20.96439 6311 ft 251 kts 18°
2026-04-30 13:24 51.80554 20.98287 5633 ft 253 kts 18°
2026-04-30 13:24 51.83843 21.00136 5165 ft 246 kts 18°
2026-04-30 13:25 51.86971 21.01906 4937 ft 231 kts 18°
2026-04-30 13:25 51.89924 21.03569 4743 ft 218 kts 18°
2026-04-30 13:26 51.94062 21.05919 4405 ft 208 kts 17°
2026-04-30 13:26 51.96840 21.07480 3996 ft 214 kts 18°
2026-04-30 13:27 51.99610 21.09047 3613 ft 205 kts 15°
2026-04-30 13:28 52.03397 21.08122 2966 ft 191 kts 336°
2026-04-30 13:28 52.05669 21.06279 2562 ft 175 kts 330°
2026-04-30 13:28 52.06721 21.05339 2279 ft 168 kts 333°
2026-04-30 13:29 52.08598 21.03692 1917 ft 142 kts 328°
2026-04-30 13:29 52.10254 21.02339 1513 ft 128 kts 329°
2026-04-30 13:30 52.12520 21.00262 997 ft 125 kts 333°
2026-04-30 13:31 52.14054 20.98912 713 ft 125 kts 331°
2026-04-30 13:31 52.16279 20.96967 338 ft 97 kts 332°
2026-04-30 13:32 52.17045 20.96309 336 ft 36 kts 338°
2026-04-30 13:32 52.17377 20.96258 336 ft 9 kts 24°
2026-04-30 13:33 52.17360 20.96420 338 ft 10 kts 144°
2026-04-30 13:33 52.17220 20.96544 337 ft 14 kts 153°
2026-04-30 13:34 52.17124 20.96630 336 ft 17 kts 151°
2026-04-30 13:34 52.16782 20.96930 337 ft 19 kts 152°
2026-04-30 13:35 52.16666 20.97028 337 ft 18 kts 151°
2026-04-30 13:35 52.16432 20.97234 332 ft 20 kts 152°
2026-04-30 13:36 52.16184 20.97449 338 ft 20 kts 152°
2026-04-30 13:36 52.16065 20.97552 336 ft 19 kts 152°
2026-04-30 13:36 52.15842 20.97749 334 ft 18 kts 152°
2026-04-30 13:37 52.15734 20.97844 338 ft 18 kts 152°
2026-04-30 13:37 52.15499 20.98049 337 ft 20 kts 152°
2026-04-30 13:38 52.15300 20.98223 334 ft 8 kts 150°
2026-04-30 13:38 52.15296 20.98279 338 ft 6 kts 61°
2026-04-30 13:38 52.15326 20.98370 338 ft 1 kts 62°
2026-04-30 13:39 52.15329 20.98377 338 ft 0 kts 62°